Location: Bothwell
(42.3833°S, 147.0000°E)
Time: 10:02:25
(UTC+10:00)

Envisat - Visible Passes

Search period start: 28 June 2022 00:00
Search period end: 08 July 2022 00:00
Orbit: 764 x 765 km, 98.2° (Epoch: 27 June)

Date Brightness Start Highest point End Pass type
(mag) Time Alt. Az. Time Alt. Az. Time Alt. Az.
28 Jun 5.7 18:31:11 10° SSW 18:33:24 13° WSW 18:35:37 10° W visible
29 Jun 5.0 17:52:43 10° S 17:56:56 26° WSW 18:01:07 10° WNW visible
30 Jun 3.8 17:15:14 10° S 17:20:15 54° WSW 17:25:14 10° NNW visible
01 Jul 5.6 18:18:42 10° SSW 18:21:47 16° WSW 18:24:50 10° W visible
02 Jul 4.7 17:40:42 10° S 17:45:15 32° WSW 17:49:45 10° NW visible
04 Jul 5.4 18:06:29 10° SSW 18:10:08 20° WSW 18:13:48 10° WNW visible
05 Jul 4.3 17:28:44 10° S 17:33:33 40° WSW 17:38:18 10° NW visible
06 Jul 5.8 18:32:58 10° SW 18:34:56 12° WSW 18:36:53 10° W visible
07 Jul 5.1 17:54:22 10° SSW 17:58:29 25° WSW 18:02:34 10° WNW visible
